Temp
-5 -5 -5 -5 -5 -5 -5 -5 -6 -6 -6 -6 -6 -6 -6 -6 -7 -7 -7 -7 -7 -7 -7 -7 -7 -7 -7 -7 -7 -7 -7 -7 -7 -7 -7 -7 -7 -7 -7 -7 -7 -7
-5 -5 -5 -5 -5 -5 -5 -5 -5 -6 -6 -6 -6 -6 -6 -6 -7 -7 -7 -7 -7 -7 -7 -7 -7 -7 -7 -7 -7 -7 -7 -7 -7 -7 -7 -8 -7 -7 -7 -7 -7 -7
-5 -5 -5 -5 -5 -5 -5 -5 -5 -6 -6 -6 -6 -6 -6 -6 -7 -7 -7 -7 -7 -7 -7 -8 -7 -7 -7 -7 -7 -7 -7 -7 -7 -7 -7 -8 -8 -7 -7 -8 -8 -7
-5 -5 -5 -5 -5 -5 -5 -5 -5 -6 -6 -6 -6 -6 -6 -6 -6 -7 -7 -7 -7 -7 -7 -8 -8 -8 -7 -7 -7 -7 -7 -7 -7 -7 -8 -8 -8 -8 -8 -8 -8 -8
-5 -5 -5 -5 -5 -5 -5 -5 -5 -6 -6 -6 -6 -6 -6 -6 -6 -7 -7 -7 -7 -7 -7 -7 -8 -8 -8 -8 -7 -7 -7 -7 -7 -7 -8 -8 -8 -8 -8 -8 -8 -8
-5 -5 -5 -5 -5 -5 -5 -6 -6 -6 -6 -6 -6 -6 -6 -6 -6 -6 -7 -7 -7 -7 -7 -7 -8 -8 -8 -8 -7 -7 -7 -7 -7 -7 -8 -8 -8 -8 -8 -8 -8 -8
-6 -6 -6 -6 -5 -6 -6 -6 -6 -6 -6 -6 -6 -6 -6 -6 -6 -7 -7 -7 -7 -7 -7 -8 -8 -8 -8 -8 -8 -8 -8 -8 -8 -8 -8 -8 -8 -8 -8 -8 -8 -8
-6 -6 -6 -6 -6 -6 -6 -6 -6 -6 -6 -6 -6 -6 -6 -6 -6 -6 -7 -7 -7 -7 -7 -7 -8 -8 -8 -8 -8 -8 -8 -8 -8 -8 -8 -8 -8 -8 -8 -8 -8 -8
-6 -6 -6 -6 -6 -6 -6 -6 -6 -6 -6 -6 -6 -6 -6 -6 -6 -7 -7 -7 -7 -7 -7 -7 -8 -8 -8 -8 -8 -8 -8 -8 -8 -8 -8 -8 -8 -8 -8 -8 -8 -8
-6 -6 -6 -6 -6 -6 -6 -6 -6 -7 -6 -6 -6 -6 -6 -6 -6 -7 -7 -7 -7 -7 -7 -7 -8 -8 -8 -8 -8 -8 -8 -8 -8 -8 -8 -8 -8 -8 -8 -8 -8 -8
-6 -6 -5 -6 -6 -6 -6 -6 -6 -7 -7 -7 -7 -6 -6 -6 -6 -6 -7 -7 -7 -7 -7 -7 -8 -8 -8 -8 -8 -8 -8 -8 -8 -8 -8 -8 -8 -8 -8 -8 -8 -8
-6 -6 -6 -6 -6 -6 -6 -6 -6 -7 -7 -7 -7 -7 -7 -7 -7 -7 -7 -7 -7 -7 -7 -8 -8 -8 -8 -8 -8 -8 -8 -8 -8 -8 -8 -8 -8 -8 -8 -8 -8 -9
-6 -6 -6 -6 -6 -6 -6 -6 -6 -6 -7 -7 -7 -7 -7 -7 -7 -7 -7 -7 -7 -7 -8 -8 -8 -8 -8 -8 -8 -8 -8 -8 -8 -8 -8 -8 -8 -8 -8 -8 -8 -8
-6 -6 -6 -6 -6 -6 -6 -6 -6 -6 -7 -7 -7 -7 -7 -7 -7 -7 -7 -7 -7 -7 -8 -8 -8 -8 -8 -8 -8 -8 -8 -8 -8 -8 -8 -8 -8 -8 -8 -8 -8 -8
-6 -6 -6 -6 -6 -6 -6 -6 -6 -6 -7 -7 -7 -7 -7 -7 -7 -7 -7 -7 -7 -7 -7 -7 -7 -7 -8 -8 -8 -8 -8 -8 -8 -8 -8 -8 -8 -8 -8 -8 -8 -8
-6 -6 -6 -6 -6 -6 -6 -6 -6 -6 -7 -7 -7 -7 -7 -7 -7 -7 -7 -7 -7 -7 -7 -7 -7 -7 -8 -8 -8 -8 -8 -8 -8 -8 -8 -8 -8 -8 -8 -8 -8 -8
-6 -6 -6 -6 -6 -6 -6 -6 -6 -6 -7 -7 -7 -7 -7 -7 -7 -7 -7 -7 -7 -7 -7 -7 -7 -7 -7 -8 -8 -8 -8 -8 -8 -8 -8 -8 -8 -8 -8 -8 -8 -8
-6 -6 -6 -6 -6 -6 -6 -6 -6 -6 -7 -7 -7 -7 -7 -7 -7 -7 -7 -7 -7 -7 -7 -7 -7 -7 -7 -8 -8 -8 -8 -8 -7 -7 -8 -8 -8 -8 -8 -8 -8 -8
-6 -6 -6 -6 -6 -6 -6 -6 -6 -6 -7 -7 -7 -7 -7 -7 -7 -7 -7 -7 -7 -7 -7 -7 -7 -7 -7 -7 -8 -8 -8 -7 -7 -7 -7 -8 -8 -8 -8 -8 -8 -8
-6 -6 -6 -7 -7 -7 -7 -7 -7 -7 -7 -7 -7 -7 -7 -7 -7 -7 -7 -7 -7 -7 -7 -7 -7 -7 -7 -7 -7 -7 -8 -7 -7 -7 -7 -8 -8 -8 -8 -8 -8 -8
-6 -6 -7 -7 -7 -7 -7 -7 -7 -7 -7 -7 -7 -7 -7 -7 -7 -7 -7 -7 -7 -7 -8 -8 -7 -7 -7 -7 -7 -7 -8 -8 -7 -7 -7 -7 -8 -8 -8 -8 -8 -8
-6 -7 -7 -7 -7 -7 -7 -7 -7 -7 -7 -7 -7 -7 -7 -8 -8 -8 -8 -7 -8 -8 -8 -8 -8 -8 -8 -7 -7 -7 -7 -7 -7 -7 -7 -7 -8 -8 -8 -8 -8 -8
-6 -7 -7 -7 -7 -7 -7 -7 -7 -7 -7 -7 -7 -7 -7 -7 -8 -8 -8 -8 -8 -8 -8 -8 -8 -8 -8 -8 -8 -8 -7 -7 -7 -7 -7 -7 -7 -8 -8 -8 -8 -8
-7 -7 -7 -7 -7 -7 -7 -7 -7 -7 -7 -7 -7 -7 -7 -7 -7 -7 -8 -8 -8 -8 -8 -8 -8 -8 -8 -8 -8 -8 -8 -8 -7 -7 -7 -7 -7 -7 -8 -8 -8 -8
-7 -7 -7 -7 -7 -7 -7 -7 -7 -7 -7 -7 -7 -7 -7 -7 -7 -7 -7 -8 -8 -8 -8 -8 -8 -8 -8 -8 -8 -8 -8 -8 -8 -8 -8 -8 -7 -7 -8 -8 -8 -8
-7 -7 -7 -7 -7 -7 -7 -7 -7 -7 -7 -7 -7 -7 -7 -7 -7 -7 -7 -7 -7 -8 -8 -8 -8 -8 -7 -7 -8 -8 -8 -8 -8 -8 -8 -8 -8 -8 -8 -8 -8 -8
Height
5922 5923 5924 5925 5925 5926 5927 5928 5929 5930 5931 5932 5932 5933 5934 5936 5936 5937 5937 5937 5937 5937 5938 5938 5938 5938 5938 5938 5938 5938 5938 5938 5937 5937 5936 5937 5937 5937 5937 5936 5935 5934
5920 5921 5922 5923 5924 5924 5925 5926 5927 5928 5929 5929 5930 5932 5933 5934 5935 5935 5936 5936 5936 5936 5936 5936 5937 5937 5937 5937 5937 5938 5938 5937 5937 5936 5935 5935 5935 5935 5935 5934 5934 5933
5918 5920 5921 5921 5922 5923 5923 5924 5925 5926 5926 5927 5928 5930 5931 5932 5933 5934 5934 5935 5935 5935 5935 5935 5935 5936 5936 5936 5936 5937 5937 5937 5936 5935 5934 5934 5934 5934 5934 5933 5933 5933
5917 5918 5919 5920 5920 5921 5921 5923 5923 5924 5925 5925 5926 5927 5929 5930 5931 5932 5932 5933 5933 5934 5934 5934 5934 5934 5935 5935 5935 5935 5935 5935 5935 5935 5934 5934 5934 5934 5933 5933 5933 5932
5915 5916 5917 5918 5919 5919 5920 5921 5922 5922 5923 5924 5925 5926 5927 5928 5929 5930 5931 5931 5932 5932 5932 5932 5932 5933 5933 5933 5933 5934 5934 5934 5934 5934 5933 5933 5933 5933 5933 5933 5932 5932
5914 5914 5915 5916 5917 5917 5918 5919 5920 5920 5921 5922 5923 5924 5925 5926 5927 5928 5929 5929 5930 5931 5931 5931 5931 5931 5931 5931 5931 5932 5932 5932 5932 5932 5932 5932 5932 5932 5932 5931 5931 5930
5911 5912 5913 5914 5914 5915 5916 5917 5917 5918 5919 5920 5921 5922 5923 5924 5925 5926 5927 5928 5928 5929 5929 5929 5929 5929 5929 5929 5929 5930 5930 5931 5931 5931 5931 5930 5930 5930 5930 5930 5930 5929
5909 5910 5910 5911 5912 5913 5914 5914 5915 5916 5917 5918 5919 5920 5921 5922 5923 5924 5925 5926 5926 5927 5927 5927 5927 5927 5927 5927 5927 5928 5928 5929 5929 5929 5929 5929 5929 5929 5929 5929 5928 5928
5906 5907 5908 5909 5910 5911 5911 5912 5912 5913 5914 5915 5917 5917 5919 5920 5921 5922 5923 5924 5924 5925 5925 5925 5925 5925 5925 5925 5925 5925 5926 5926 5927 5927 5927 5927 5927 5927 5927 5927 5927 5926
5904 5905 5906 5907 5908 5908 5909 5909 5910 5910 5911 5913 5914 5915 5916 5917 5918 5919 5921 5921 5922 5923 5923 5923 5923 5923 5923 5923 5923 5923 5924 5924 5925 5925 5925 5926 5926 5926 5926 5925 5925 5925
5902 5903 5904 5904 5905 5905 5906 5906 5907 5907 5908 5909 5911 5912 5914 5915 5916 5917 5918 5919 5919 5920 5920 5920 5920 5920 5920 5921 5921 5921 5921 5922 5922 5923 5923 5923 5924 5924 5924 5924 5924 5923
5899 5900 5901 5901 5901 5902 5903 5903 5904 5905 5905 5906 5908 5909 5911 5912 5913 5914 5915 5916 5916 5917 5917 5917 5917 5918 5918 5918 5918 5919 5919 5920 5920 5921 5921 5921 5921 5921 5921 5921 5921 5921
5898 5898 5899 5898 5899 5899 5900 5900 5901 5902 5903 5904 5905 5906 5908 5909 5910 5911 5912 5913 5913 5913 5914 5914 5914 5914 5915 5915 5915 5916 5917 5917 5918 5918 5918 5919 5919 5919 5919 5919 5919 5919
5896 5896 5896 5896 5897 5898 5898 5899 5899 5900 5901 5901 5902 5904 5905 5906 5907 5908 5908 5909 5909 5910 5910 5910 5910 5911 5911 5912 5912 5913 5914 5914 5915 5915 5916 5916 5916 5916 5916 5916 5916 5916
5894 5894 5894 5895 5895 5896 5897 5897 5897 5898 5899 5899 5900 5902 5902 5903 5904 5905 5905 5905 5906 5906 5907 5907 5907 5908 5908 5909 5910 5910 5911 5911 5912 5912 5913 5913 5913 5913 5914 5914 5914 5913
5891 5891 5892 5893 5894 5895 5895 5896 5896 5897 5897 5898 5899 5899 5900 5901 5901 5902 5902 5903 5903 5904 5904 5904 5905 5905 5906 5906 5907 5907 5908 5908 5909 5909 5910 5910 5910 5911 5911 5911 5911 5910
5888 5889 5890 5891 5892 5893 5893 5894 5894 5895 5895 5896 5897 5898 5898 5899 5899 5900 5901 5901 5901 5901 5902 5902 5903 5903 5903 5904 5904 5904 5905 5905 5906 5906 5906 5907 5907 5907 5907 5908 5907 5907
5886 5887 5888 5889 5890 5891 5891 5892 5892 5893 5894 5894 5895 5896 5896 5897 5898 5898 5899 5899 5899 5899 5900 5900 5900 5901 5901 5901 5901 5902 5902 5902 5903 5903 5903 5903 5904 5904 5904 5904 5904 5904
5883 5884 5886 5887 5888 5888 5889 5889 5890 5891 5892 5893 5893 5894 5894 5895 5896 5896 5897 5897 5897 5897 5898 5898 5898 5899 5899 5899 5899 5899 5899 5899 5899 5899 5899 5899 5900 5900 5900 5900 5900 5900
5880 5881 5883 5884 5885 5886 5886 5886 5887 5888 5889 5890 5891 5891 5892 5893 5894 5894 5894 5895 5895 5895 5895 5896 5896 5896 5897 5896 5896 5896 5896 5896 5896 5896 5895 5895 5896 5896 5896 5896 5896 5896
5877 5879 5880 5881 5882 5882 5883 5884 5885 5886 5886 5887 5888 5888 5889 5890 5890 5891 5891 5892 5892 5893 5893 5893 5894 5894 5894 5894 5893 5892 5892 5892 5891 5891 5892 5892 5892 5892 5891 5892 5892 5892
5875 5876 5877 5878 5879 5880 5881 5882 5882 5883 5883 5884 5884 5885 5886 5886 5887 5888 5888 5889 5889 5889 5890 5891 5891 5891 5891 5891 5890 5889 5888 5888 5887 5888 5888 5889 5888 5888 5887 5888 5888 5888
5873 5873 5874 5875 5876 5877 5878 5879 5880 5880 5880 5880 5881 5881 5882 5883 5884 5885 5885 5885 5885 5886 5887 5888 5888 5888 5888 5888 5887 5886 5885 5884 5884 5884 5884 5885 5884 5883 5883 5884 5884 5884
5870 5870 5871 5872 5873 5874 5875 5876 5876 5876 5876 5877 5877 5878 5879 5879 5880 5880 5881 5881 5882 5882 5883 5883 5884 5884 5884 5884 5884 5883 5881 5880 5880 5879 5879 5880 5880 5879 5880 5880 5879 5879
5867 5868 5868 5869 5870 5871 5871 5872 5872 5872 5873 5873 5874 5874 5875 5875 5875 5876 5877 5878 5878 5878 5878 5879 5879 5879 5880 5880 5880 5879 5878 5876 5875 5875 5875 5875 5875 5875 5875 5875 5874 5874
5864 5864 5865 5866 5867 5868 5868 5868 5868 5869 5869 5870 5870 5870 5870 5871 5872 5872 5873 5873 5874 5874 5874 5874 5874 5874 5875 5876 5875 5874 5873 5872 5870 5870 5870 5870 5870 5870 5870 5870 5869 5868
Wind_Speed
19 18 18 19 19 19 18 18 18 18 18 18 18 17 14 11 9 7 7 6 5 6 8 9 9 10 12 13 13 12 11 10 9 7 5 5 6 6 6 7 9 12
20 19 19 19 20 20 19 19 18 18 19 19 19 17 15 13 11 9 8 7 6 5 7 9 11 11 12 13 14 13 12 11 10 8 7 7 7 7 7 8 10 12
21 20 20 20 20 21 21 20 18 18 19 20 19 19 17 15 14 12 10 9 7 6 6 8 10 12 13 14 14 14 14 12 11 9 7 7 8 7 8 9 11 13
21 20 20 21 21 22 22 20 19 19 20 20 21 20 19 17 16 15 13 11 10 9 8 8 10 12 14 15 15 15 15 14 13 11 9 8 8 8 9 10 11 13
21 21 21 21 21 22 22 21 21 21 21 21 22 21 20 19 18 17 15 13 12 11 11 11 11 12 14 15 16 16 16 15 14 13 11 9 9 9 10 11 12 14
22 22 22 21 21 22 22 21 22 22 22 22 23 22 21 21 20 19 18 16 14 13 13 13 13 13 14 16 17 16 17 17 16 15 13 12 11 10 11 12 13 14
23 23 23 23 23 23 22 22 23 23 23 23 23 22 22 22 21 21 20 18 16 15 14 15 15 15 15 17 17 17 17 17 17 17 16 14 13 12 12 13 14 15
24 24 24 24 24 23 23 24 24 24 24 24 23 23 23 22 22 22 21 20 18 16 16 16 17 17 17 17 18 18 18 18 18 18 17 16 15 13 13 14 14 15
25 24 24 24 24 24 24 24 25 25 26 25 24 24 23 22 22 22 22 21 20 18 18 18 19 19 19 18 19 19 19 19 19 19 18 18 17 15 14 14 14 15
24 24 24 23 23 23 24 25 26 27 27 27 26 26 24 23 23 22 22 22 21 20 20 20 20 21 21 20 20 21 21 20 20 20 20 19 18 17 15 15 14 14
23 23 22 22 23 23 24 25 26 27 28 28 27 26 25 24 24 23 22 22 22 22 22 22 22 23 23 22 22 22 22 21 21 21 21 21 20 19 17 15 14 14
23 22 21 22 22 22 23 24 24 26 27 27 27 26 25 25 24 24 23 23 23 24 24 24 24 25 25 24 24 23 22 22 22 22 22 22 22 20 18 17 15 14
22 21 21 21 21 21 21 21 21 22 24 26 27 26 25 25 25 25 25 25 26 26 26 26 26 26 26 25 25 24 23 23 23 23 24 23 23 22 20 18 16 15
22 21 22 21 20 19 18 17 18 18 19 21 21 21 21 22 23 24 24 25 26 26 26 26 26 25 25 25 25 24 23 23 23 24 25 25 24 24 23 20 18 17
23 23 23 21 19 18 16 15 14 14 14 14 13 13 14 14 15 16 18 19 21 21 21 21 20 20 21 24 25 24 24 24 24 25 26 26 26 25 25 23 20 19
24 25 23 21 19 17 16 15 13 12 11 10 9 10 10 10 10 11 11 12 14 15 15 15 14 14 17 21 24 25 25 25 26 26 27 28 27 27 26 25 23 22
26 25 23 21 20 19 17 16 14 13 11 10 9 8 8 8 9 9 9 10 11 12 12 12 12 12 14 18 22 24 25 25 26 26 27 28 28 28 27 27 25 24
25 24 23 21 20 20 19 18 17 15 13 11 10 8 8 8 7 7 8 9 10 12 13 13 13 13 14 17 20 22 24 24 25 26 28 29 29 29 29 28 28 27
25 24 22 21 21 21 21 21 20 17 14 12 11 10 10 9 8 8 8 8 10 11 12 14 15 15 15 17 19 21 23 24 24 25 27 29 30 30 30 30 29 29
25 24 22 21 21 22 23 22 20 18 15 14 14 14 12 11 11 12 12 11 12 11 11 13 14 15 17 19 21 22 24 25 25 26 28 29 29 30 31 31 31 31
25 24 23 22 22 23 23 21 20 19 18 17 17 17 16 15 16 16 15 15 15 14 13 13 14 15 17 20 22 24 25 27 28 28 28 28 29 30 31 31 31 31
25 24 24 23 23 23 22 21 21 20 21 21 21 21 20 20 20 20 19 19 19 19 18 17 16 17 17 19 22 25 27 29 30 29 29 28 29 30 31 32 32 32
24 24 24 24 24 24 23 22 23 23 24 25 25 25 24 24 24 25 26 25 24 23 22 21 21 21 20 21 23 26 28 29 30 31 30 30 31 32 32 33 33 32
23 24 25 26 26 26 25 26 27 27 27 27 27 27 27 26 27 27 28 28 28 29 28 27 26 26 25 24 25 27 29 31 31 32 32 32 33 33 33 33 34 34
24 26 28 29 30 30 30 30 30 29 29 29 30 30 30 30 31 30 29 30 31 32 34 34 33 31 29 28 29 30 32 34 34 34 34 34 34 34 34 34 36 36
25 29 32 33 33 33 34 34 33 33 33 33 34 34 34 34 35 34 33 32 33 34 35 36 36 36 33 32 33 35 36 38 39 38 38 37 37 36 36 36 37 38
Wind_Direction
212 209 207 207 208 211 214 217 218 219 221 222 225 229 230 227 230 243 256 265 267 258 252 253 253 253 256 260 263 266 266 264 262 268 288 312 324 334 345 359 9 7
213 212 210 210 211 214 216 217 218 219 221 223 225 228 228 225 226 237 252 261 271 273 263 257 256 256 256 259 263 266 267 264 263 270 288 306 315 327 343 355 0 357
215 214 214 216 217 218 219 219 219 218 220 222 224 226 226 224 224 232 246 258 267 275 274 265 259 258 258 259 262 265 267 264 262 266 280 296 306 319 335 344 346 344
220 219 219 220 222 224 224 224 224 222 223 223 224 226 226 226 226 231 242 253 258 266 275 274 267 261 259 259 261 264 266 264 261 263 270 283 295 307 317 325 330 333
227 227 226 224 225 228 230 230 230 229 228 227 228 230 230 229 228 231 240 247 252 260 271 278 276 267 260 259 259 262 264 264 262 262 265 271 282 293 301 308 317 324
232 232 233 232 231 232 233 233 234 235 234 234 234 235 236 235 233 233 238 243 249 255 264 275 280 274 264 258 257 258 262 263 263 263 265 268 274 284 293 300 308 317
234 235 236 237 237 238 238 238 238 238 238 239 240 241 241 241 239 237 238 242 247 252 259 269 278 279 270 261 256 255 258 261 262 263 265 267 272 280 289 296 305 315
235 235 236 238 240 241 243 244 244 243 243 242 242 243 243 244 243 242 241 243 247 250 255 263 274 279 275 266 259 254 254 257 259 262 264 267 271 276 285 293 303 314
235 235 236 238 240 242 244 246 248 248 248 247 245 244 244 245 245 244 244 246 248 251 255 261 270 276 276 269 261 255 252 253 256 259 263 266 269 274 281 290 301 311
235 236 238 240 242 244 245 246 248 249 250 250 248 247 246 245 246 246 246 249 252 254 257 260 266 272 273 269 262 257 252 251 252 256 260 264 267 270 277 285 296 306
237 239 242 244 246 246 247 247 248 248 250 251 250 249 248 248 248 248 249 251 254 256 257 260 264 269 271 267 261 257 253 251 251 254 258 262 266 268 273 280 289 298
239 243 246 248 249 249 249 249 249 248 249 249 250 249 247 248 249 250 252 253 255 256 258 260 263 267 270 267 260 256 254 252 252 253 256 261 264 267 270 276 282 288
242 245 246 247 247 247 249 251 252 251 250 250 250 250 249 249 250 251 253 254 255 257 258 261 263 265 267 265 260 256 255 254 253 254 256 259 263 265 268 272 276 280
242 243 242 242 242 245 249 251 252 251 251 251 252 253 252 250 250 250 251 252 254 256 257 259 261 263 263 262 258 256 255 254 253 254 255 257 260 264 266 268 270 273
240 239 237 237 241 245 248 248 244 241 240 241 241 241 241 241 242 244 246 247 249 251 253 255 258 260 259 256 254 255 255 254 252 252 254 257 260 263 265 266 267 269
234 234 234 237 242 245 245 243 237 228 220 216 216 219 222 226 229 232 237 242 245 247 249 250 251 253 254 251 251 253 255 255 253 252 254 257 259 262 264 265 265 267
231 234 236 240 242 242 241 239 232 222 211 203 201 204 210 220 226 230 236 242 246 250 251 250 249 250 252 251 251 253 256 257 256 255 255 257 260 262 264 264 265 265
230 234 237 240 241 240 238 235 231 226 218 209 203 205 216 223 227 231 238 245 250 254 254 252 250 251 254 255 256 257 259 260 259 258 259 260 261 263 263 263 264 265
228 232 235 237 238 237 236 235 234 232 226 218 215 221 228 229 230 235 240 244 249 253 255 254 251 251 253 256 258 259 260 260 259 259 260 261 262 263 263 262 262 264
226 230 234 235 234 233 233 235 237 237 233 228 228 232 235 235 237 242 244 244 246 249 255 257 255 253 253 254 256 259 260 260 258 258 259 260 262 264 264 264 262 262
228 232 235 235 233 231 232 235 239 241 241 240 239 240 241 242 246 249 248 248 248 250 252 256 257 257 255 255 257 257 258 259 258 258 259 260 262 264 265 266 264 262
235 237 238 237 235 233 233 236 240 244 245 246 245 244 244 247 252 256 256 255 255 255 254 254 256 257 258 260 261 261 261 261 262 263 262 262 263 264 265 267 266 264
239 242 242 241 239 238 238 240 242 244 245 246 247 247 248 249 252 256 258 260 261 260 258 255 254 257 260 261 263 265 266 267 268 269 268 266 264 263 264 266 267 266
244 245 245 244 243 242 242 243 244 245 247 248 249 249 250 250 250 250 252 256 261 264 264 261 258 257 259 261 263 266 269 271 271 271 271 270 268 267 266 266 267 267
251 249 246 245 245 245 246 247 248 249 250 251 251 251 252 252 252 251 251 252 255 259 262 264 264 262 260 260 261 265 269 271 270 270 271 271 271 271 271 269 268 267
257 253 251 251 252 252 253 254 255 255 254 254 254 254 255 255 256 256 256 256 257 258 260 263 266 268 267 264 261 262 265 268 269 270 271 272 272 273 272 270 269 268